Vertical_Velocity
2 1 2 2 1 -5 -3 -4 -5 -7 -5 -1 2 -0 1 1 -2 -3 -2 -0 -1 -1 -2 -0 -0 -1 -1 -0 3 3 1 1 -1 -1 2 1 3 -4 -4 -3 0 2 3
0 -1 -2 -4 -2 -4 1 5 9 5 -3 -10 -7 -1 1 -3 0 -3 -4 -3 0 2 -1 1 -1 -2 -1 -1 -0 0 0 3 6 3 -5 -4 -3 4 5 3 2 2 -2
-3 0 1 2 3 5 8 8 7 -0 -2 3 3 -5 -4 2 0 -1 1 0 -0 -0 -1 1 -0 0 -1 1 0 -3 -1 -1 -1 -1 3 3 -1 -1 0 3 5 3 -2
-5 -4 -3 -1 -1 0 -2 -1 3 6 8 5 -1 6 -5 -8 1 1 -1 -1 1 -1 1 -1 -1 0 -1 -2 -1 1 -3 -1 -5 -1 2 4 0 -1 -3 -6 -6 1 3
-0 1 -1 -4 -1 0 -2 -1 -2 -4 0 -2 3 2 4 -1 -5 0 -0 0 -0 0 2 2 1 -0 -0 -3 -6 -2 2 1 -2 -2 -3 -6 0 1 5 -4 -4 -3 -2
2 -5 2 2 5 10 7 -1 -2 9 -5 0 1 -2 -2 3 -3 -2 -0 -0 -1 1 -1 -1 1 -1 -1 1 0 -2 -1 -3 -3 0 -0 -0 -7 -7 -1 2 4 2 5
9 6 7 13 8 30 31 16 -0 -3 2 7 3 2 6 2 2 -2 -1 -0 1 0 -0 -3 -4 -2 -0 -1 -2 1 -1 1 -3 0 -1 -5 -4 -7 -3 9 6 2 4
-1 -1 10 13 23 -16 -76 -23 -2 -43 -7 5 9 -1 5 0 -0 -3 -4 -3 -2 -2 0 1 -2 -2 1 2 -2 3 1 2 5 4 4 2 7 0 -0 -0 -3 -1 -14
6 -2 -1 7 18 15 12 10 13 4 4 7 15 1 6 1 4 -6 -5 -1 -4 -2 -2 0 0 -0 0 7 4 -0 -2 1 -2 -5 -2 -1 -4 -7 -11 -2 7 -5 -5
2 1 0 -1 -1 0 3 5 1 -4 6 -0 5 35 -0 2 8 2 3 1 3 1 -6 2 -2 -6 2 4 1 -1 -1 -5 -6 -3 -3 -1 4 -9 0 9 -4 10 5
-2 -2 1 2 2 2 -3 -8 -6 2 2 6 4 4 -1 -4 6 3 5 2 1 -1 -2 -0 -5 -2 -5 -3 5 4 5 6 -1 -1 -7 -2 -2 -7 -3 -2 -5 1 6
-1 -0 -3 -4 -3 -2 -10 -4 3 1 3 3 12 -8 15 -33 2 11 1 -3 1 -0 0 -3 7 -3 -1 -3 -2 -3 -0 -1 -3 -8 -2 8 2 -5 -5 -2 -1 -3 -1
-1 -2 -1 -2 0 -6 -10 1 -20 -5 23 31 76 -9 50 9 19 13 -2 -18 8 4 -3 1 2 -1 -0 4 4 -1 -4 6 1 -1 -2 -5 -4 1 -4 0 -1 -1 0
0 -0 -4 -3 3 4 -8 -12 -16 17 14 61 20 -14 -13 25 7 -11 -17 -7 9 1 -2 -1 -4 -6 -3 -0 -1 -4 0 1 4 -2 1 0 -5 -3 1 1 -1 1 -2
3 4 -4 -3 -3 1 -5 -3 -2 -3 -9 -14 -5 -18 -33 -20 -6 3 2 3 -6 1 -4 -1 -1 -5 0 -1 1 -5 -2 1 2 6 -1 -1 1 -2 -4 -5 -1 -8 -1
-2 -2 -1 -2 2 -0 -9 -7 1 -2 -3 -8 -10 -8 2 -1 1 2 -4 -0 2 2 0 -1 -2 -4 -0 -1 -0 -2 3 -2 -5 3 -2 -1 -1 -4 -4 -1 1 -1 -2
-2 -2 2 4 -2 2 -8 -14 -9 -5 2 5 3 3 0 7 10 7 3 -0 -1 -2 0 3 4 2 1 -3 0 2 3 -0 2 2 -1 1 -0 -1 -0 -4 -1 -4 -1
-2 -0 -0 -7 -6 -4 -0 2 2 3 2 3 2 1 -3 -3 -4 3 20 3 -2 -0 -0 -0 2 2 -6 11 -6 -5 16 -5 3 -1 -0 -5 -4 1 9 2 2 -2 5
-3 1 1 0 2 1 5 2 1 4 5 -0 -0 -2 -1 -3 -1 1 3 3 1 -3 -2 2 -0 0 -2 3 -0 1 -1 1 -1 -2 -2 -0 3 0 -2 0 1 1 7
4 2 3 2 -1 -0 -1 -1 -0 2 1 0 1 3 -0 -0 -1 -4 -6 -5 -4 -3 -2 -2 -2 -2 -3 -2 -1 -2 2 -0 -1 -0 -1 -2 -3 -3 -1 1 -3 4 15
2 2 -2 4 4 2 2 2 0 1 -0 1 -0 -2 -1 -2 -2 -2 -2 -2 -1 -0 -1 -1 1 0 1 -1 -1 1 0 -2 -3 -2 -0 -0 1 1 -0 -3 -0 -1 2
-0 3 4 2 -1 -1 0 1 1 2 2 1 0 0 2 2 1 -0 0 2 2 1 2 2 2 2 -0 -1 -2 -3 -4 -1 -0 -1 -1 -1 -2 -2 -1 -1 0 -0 -1
-1 -1 -1 -1 -1 -2 -2 -2 -2 -3 -2 -2 -2 -2 -3 -3 -1 -1 0 1 1 1 1 -0 -2 -3 -4 -2 -2 -2 0 1 -1 -1 -1 -0 0 -1 -2 -1 -1 -0 -0
1 1 0 0 0 0 -0 0 -0 0 0 -0 0 0 0 1 1 0 -2 -3 -4 -4 -3 -3 -2 -2 -2 -3 -2 -1 -2 -3 -3 -2 -2 -2 -1 -1 -2 -3 -3 -2 0
-0 -0 1 1 2 2 1 -0 -2 -3 -3 -2 -1 0 -0 -1 -1 -1 -1 -0 -1 -2 -2 -1 0 1 1 1 1 1 0 1 0 1 1 -1 -3 -4 -3 -3 -1 -1 -1
-2 -3 -3 -3 -4 -3 -3 -2 -0 1 2 1 1 1 1 1 2 2 1 0 0 1 2 3 1 1 1 -0 0 -0 1 1 -0 2 2 -1 -1 -1 -1 0 0 -0 -1
Height
3183 3184 3185 3187 3188 3189 3189 3190 3191 3192 3192 3192 3192 3192 3191 3190 3189 3188 3187 3186 3185 3184 3183 3182 3181 3180 3179 3177 3175 3174 3174 3173 3173 3173 3171 3171 3170 3170 3169 3168 3168 3168 3168
3182 3182 3182 3183 3185 3185 3187 3187 3188 3189 3189 3189 3189 3189 3188 3187 3186 3186 3185 3184 3183 3182 3181 3179 3178 3177 3176 3174 3172 3171 3169 3167 3166 3166 3165 3164 3164 3165 3164 3163 3162 3163 3163
3180 3180 3179 3180 3181 3182 3183 3183 3183 3185 3185 3185 3184 3184 3184 3184 3184 3183 3182 3181 3180 3178 3177 3175 3174 3172 3171 3171 3169 3167 3164 3162 3160 3160 3160 3160 3159 3159 3159 3159 3158 3157 3157
3176 3176 3175 3175 3175 3175 3175 3175 3176 3178 3179 3180 3180 3179 3179 3179 3178 3177 3177 3177 3176 3175 3173 3172 3170 3168 3166 3165 3163 3162 3161 3160 3159 3156 3155 3155 3154 3154 3153 3153 3153 3152 3152
3171 3170 3170 3170 3168 3168 3168 3169 3169 3170 3171 3173 3173 3173 3173 3173 3173 3173 3172 3172 3171 3170 3169 3167 3165 3163 3161 3160 3158 3157 3157 3156 3155 3154 3152 3150 3150 3150 3150 3149 3148 3147 3146
3167 3165 3163 3162 3161 3160 3160 3160 3162 3163 3164 3164 3165 3166 3167 3167 3167 3167 3166 3166 3165 3164 3163 3161 3160 3159 3157 3155 3153 3152 3151 3150 3149 3149 3148 3148 3146 3145 3144 3144 3144 3143 3143
3158 3158 3157 3155 3153 3149 3154 3156 3156 3154 3155 3157 3157 3158 3159 3159 3160 3160 3160 3159 3158 3158 3157 3155 3155 3154 3152 3151 3150 3148 3147 3146 3144 3144 3143 3142 3141 3141 3141 3140 3139 3138 3138
3149 3149 3148 3147 3145 3142 3135 3144 3141 3145 3146 3147 3147 3149 3150 3152 3152 3153 3153 3153 3152 3152 3152 3150 3149 3148 3147 3145 3143 3143 3142 3140 3139 3138 3137 3136 3135 3135 3135 3134 3134 3134 3133
3141 3141 3141 3137 3138 3135 3133 3133 3132 3132 3132 3132 3134 3135 3140 3142 3144 3145 3146 3146 3146 3145 3144 3144 3142 3141 3141 3139 3138 3137 3136 3135 3134 3134 3132 3131 3130 3129 3129 3129 3127 3128 3125
3135 3134 3132 3130 3128 3125 3123 3122 3121 3120 3121 3120 3119 3114 3126 3130 3137 3139 3140 3140 3139 3138 3137 3137 3136 3136 3135 3135 3133 3132 3131 3130 3129 3129 3128 3127 3124 3123 3122 3122 3124 3122 3120
3129 3126 3125 3122 3119 3116 3112 3108 3105 3105 3107 3109 3109 3113 3115 3121 3127 3132 3132 3132 3132 3131 3130 3131 3131 3132 3132 3130 3129 3128 3127 3126 3124 3122 3121 3120 3119 3117 3117 3117 3117 3116 3115
3123 3121 3118 3116 3112 3107 3102 3095 3088 3089 3092 3097 3102 3106 3110 3113 3117 3122 3123 3125 3126 3125 3125 3127 3127 3127 3127 3126 3125 3124 3123 3120 3119 3119 3118 3116 3113 3112 3111 3111 3109 3109 3109
3119 3117 3113 3111 3107 3103 3098 3086 3079 3082 3084 3088 3091 3101 3103 3105 3109 3112 3116 3120 3121 3120 3120 3122 3122 3122 3122 3120 3119 3118 3118 3116 3113 3113 3111 3111 3110 3107 3105 3105 3104 3103 3103
3115 3112 3110 3108 3106 3103 3096 3089 3082 3083 3086 3090 3091 3097 3101 3103 3103 3106 3113 3117 3116 3115 3115 3116 3117 3117 3116 3115 3114 3112 3112 3111 3108 3107 3105 3103 3101 3101 3100 3099 3097 3096 3095
3114 3111 3109 3107 3106 3103 3101 3098 3096 3095 3096 3097 3096 3099 3100 3103 3106 3110 3111 3112 3112 3111 3111 3111 3111 3111 3110 3109 3108 3107 3106 3104 3103 3100 3099 3098 3095 3094 3093 3093 3092 3091 3091
3114 3111 3109 3108 3106 3104 3103 3102 3101 3100 3100 3099 3099 3099 3102 3105 3106 3106 3106 3107 3107 3107 3106 3105 3105 3104 3104 3102 3102 3101 3099 3097 3095 3094 3093 3091 3090 3088 3086 3085 3084 3083 3082
3113 3111 3110 3109 3108 3107 3105 3104 3104 3103 3102 3102 3103 3103 3104 3104 3103 3103 3102 3102 3101 3101 3100 3100 3098 3097 3096 3095 3094 3093 3091 3089 3087 3086 3084 3082 3081 3080 3079 3078 3076 3074 3074
3115 3114 3112 3110 3109 3108 3107 3105 3104 3104 3104 3104 3104 3103 3102 3101 3099 3099 3096 3096 3095 3093 3092 3091 3090 3088 3088 3085 3085 3084 3081 3080 3078 3076 3074 3073 3071 3070 3067 3067 3067 3065 3065
3115 3114 3112 3110 3110 3109 3107 3106 3105 3104 3103 3101 3100 3099 3097 3096 3094 3092 3091 3089 3087 3085 3084 3082 3080 3079 3078 3076 3074 3072 3070 3068 3066 3064 3062 3060 3059 3058 3058 3056 3056 3054 3053
3115 3113 3111 3109 3108 3106 3105 3103 3102 3101 3099 3097 3095 3092 3091 3089 3087 3085 3083 3081 3079 3078 3075 3073 3072 3070 3068 3066 3064 3061 3059 3056 3054 3052 3049 3048 3046 3045 3044 3044 3044 3041 3039
3112 3109 3108 3106 3105 3103 3101 3099 3097 3095 3093 3091 3088 3086 3085 3083 3080 3078 3076 3074 3072 3069 3067 3065 3063 3060 3058 3055 3053 3051 3048 3045 3043 3041 3038 3036 3034 3032 3032 3030 3030 3029 3028
3108 3106 3103 3101 3101 3099 3096 3094 3092 3089 3087 3084 3082 3080 3078 3075 3073 3071 3068 3066 3064 3061 3059 3057 3054 3051 3049 3046 3043 3040 3037 3035 3032 3029 3027 3025 3023 3021 3019 3018 3016 3015 3015
3104 3102 3100 3098 3096 3094 3091 3090 3087 3085 3083 3080 3078 3075 3073 3070 3067 3065 3062 3059 3057 3055 3052 3049 3046 3042 3039 3036 3034 3031 3029 3026 3023 3020 3017 3015 3012 3010 3008 3007 3005 3004 3002
3099 3097 3095 3093 3091 3089 3087 3084 3082 3079 3077 3075 3072 3069 3067 3064 3061 3058 3054 3051 3048 3044 3041 3038 3035 3032 3029 3026 3023 3020 3016 3013 3010 3008 3005 3003 3001 2999 2998 2996 2994 2993 2992
3096 3094 3092 3090 3088 3085 3083 3080 3077 3074 3071 3068 3066 3063 3060 3057 3054 3051 3048 3045 3042 3039 3036 3033 3029 3026 3022 3018 3015 3011 3007 3003 3000 2996 2992 2989 2987 2986 2985 2984 2983 2982 2981
3093 3091 3088 3086 3084 3081 3079 3077 3075 3072 3070 3067 3064 3061 3058 3055 3052 3049 3046 3042 3039 3035 3031 3027 3023 3018 3014 3009 3005 3001 2997 2993 2989 2986 2982 2977 2975 2974 2973 2972 2971 2969 2968